[[{"header":{"parameterUnit":"m.s-1","parameterCategory":1,"la1":30.2991,"la2":30.254,"lo1":-89.0895,"lo2":-89.0444,"dy":0.0017,"dx":0.0017,"nx":28,"ny":28,"refTime":"2026-02-02T09:00:00:Z","depth":0,"parameterNumber":2,"parameterNumberName":"U-component_of_WINDS"},"data":[0,0,0,0,0,0,0,0,0,0,0,0,0,0,0,0,0,0,0,0,0,0,0,0,0,0,0,0,0,0,0,0,0,0,0,0,0,0,0,0,0,0,0,0,0,0,0,0,0,0,0,0,0,0,0,0,0,0,1.8634,1.8635,0,1.8722,1.8723,1.8724,1.8703,1.8701,1.8699,1.8698,1.8791,1.8795,1.8799,0,0,0,0,0,0,0,0,0,0,0,0,0,1.8451,1.8454,1.8634,1.8635,1.8636,1.8722,1.8723,1.8724,1.8703,1.8701,1.8699,1.8697,1.879,1.8794,1.8799,0,0,0,0,0,0,0,0,0,0,0,0,0,1.8534,1.8455,1.8633,1.8636,1.8637,1.8722,1.8723,1.8725,1.8703,1.8701,1.8698,1.8696,1.8788,1.8794,1.88,1.8889,0,0,1.8819,1.8821,0,0,0,0,0,0,0,0,1.8529,1.854,1.8634,1.8636,1.8637,1.8699,1.8693,1.878,1.8704,1.8678,1.8698,1.8695,1.8762,1.8771,1.8793,1.8893,1.8897,1.8819,1.8823,1.8826,1.8827,0,0,0,0,0,0,0,1.8523,1.8537,1.8669,1.8636,1.8637,1.8633,1.8642,1.8709,1.8734,1.868,1.8679,1.869,1.8763,1.8787,1.8795,1.8899,1.8819,1.8824,1.8828,1.8831,1.9079,1.9082,0,0,0,0,0,0,1.8516,1.8532,1.8666,1.8671,1.8575,1.8639,1.8649,1.8681,1.8733,1.8738,1.8692,1.8688,1.8778,1.8788,1.8798,1.8907,1.8825,1.8831,1.8835,1.9077,1.908,1.9083,0,0,0,0,0,0,1.8512,1.8528,1.8662,1.8601,1.8618,1.8645,1.8682,1.8685,1.8709,1.8741,1.8746,1.8712,1.8776,1.8789,1.8867,1.891,1.8834,1.884,1.9073,1.9078,1.9082,1.9125,0,0,0,0,0,0,1.8507,1.8527,1.856,1.8602,1.8621,1.8729,1.8684,1.8688,1.8719,1.8715,1.8761,1.8767,1.8775,1.8858,1.8873,1.8917,1.8844,1.9069,1.9075,1.908,1.912,1.9131,1.914,0,0,0,0,0,1.85,1.8569,1.8562,1.8578,1.8663,1.8731,1.8742,1.875,1.8722,1.8757,1.8778,1.8765,1.8903,1.8866,1.8883,1.8929,1.9067,1.9073,1.908,1.9116,1.9129,1.9139,0,0,0,0,0,0,1.8531,1.8574,1.8567,1.8651,1.8687,1.8727,1.877,1.8763,1.8809,1.8803,1.8812,1.8823,1.8902,1.8923,1.8882,1.902,1.8981,1.8991,1.9003,1.9015,1.9025,1.9018,1.8849,0,0,0,0,0,1.8548,1.8598,1.8633,1.8704,1.8723,1.8744,1.8774,1.8776,1.8815,1.8831,1.8858,1.8897,1.8949,1.8983,1.9033,1.9123,1.9134,1.9164,1.9174,1.9181,1.919,1.9242,1.9256,1.9105,1.9105,1.9105,0,0,1.8582,1.8612,1.8643,1.8711,1.874,1.8793,1.8757,1.8814,1.8855,1.884,1.8915,1.8936,1.898,1.9065,1.9104,1.9085,1.9235,1.919,1.9196,1.9201,1.925,1.9264,1.9277,1.911,1.9109,1.9108,0,0,1.8673,1.87,1.8762,1.8792,1.8836,1.885,1.8865,1.8907,1.892,1.8995,1.8986,1.9035,1.9124,1.9156,1.9184,1.929,1.928,1.9306,1.9357,1.9407,1.9419,1.943,1.9469,1.9482,1.9315,1.9315,1.9315,0,1.871,1.8789,1.8796,1.8855,1.8886,1.8874,1.8939,1.8968,1.9026,1.9048,1.9027,1.914,1.9169,1.9262,1.9288,1.931,1.933,1.9301,1.9416,1.9427,1.9437,1.9475,1.9489,1.9318,1.9317,1.9317,1.9317,0,1.8835,1.889,1.8935,1.8992,1.9028,1.9089,1.9106,1.9142,1.9143,1.9159,1.9237,1.9272,1.9329,1.9351,1.9352,1.9446,1.9433,1.9414,1.9376,1.9454,1.949,1.9504,1.9322,1.9321,1.932,1.9319,0,0,1.8946,1.9006,1.9023,1.9049,1.9098,1.9141,1.9203,1.9259,1.929,1.9332,1.9385,1.9462,1.9445,1.9477,1.9482,1.9526,1.9609,1.9502,1.9503,1.9521,1.9716,1.9731,1.9747,1.9603,1.9605,1.9608,1.9713,0,1.9041,1.9149,1.9158,1.9256,1.9308,1.9299,1.9354,1.939,1.9408,1.9456,1.9476,1.9531,1.9504,1.9523,1.9566,1.9589,1.9648,1.9582,1.9654,1.9656,1.9644,1.9765,1.978,1.9877,1.9726,1.9729,1.973,0,1.9167,1.9212,1.9315,1.9358,1.9381,1.9429,1.9482,1.9527,1.957,1.958,1.9617,1.9616,1.9682,1.9641,1.9732,1.9687,1.9717,1.9733,1.9738,1.9745,1.9698,1.9777,1.9908,1.9924,1.9752,1.975,1.9749,0,1.9239,1.9325,1.9399,1.9422,1.9473,1.9508,1.9532,1.9571,1.9605,1.9652,1.9674,1.9728,1.9758,1.98,1.9815,1.9783,1.9907,1.9866,1.9918,1.9918,1.9945,1.9943,2.0084,1.9963,1.9963,1.9962,1.9962,0,1.9345,1.9409,1.9432,1.9477,1.955,1.956,1.9631,1.9653,1.9689,1.9739,1.9735,1.9783,1.9799,1.985,1.9862,1.9937,1.9951,1.9962,1.9964,1.9962,1.9961,1.9983,1.9977,1.9966,1.9965,1.9965,1.9964,0,1.9437,1.9455,1.9535,1.9578,1.9591,1.9642,1.968,1.9724,1.9742,1.9806,1.9822,1.985,1.991,1.9929,2.0001,2.0009,2.0098,2.0094,2.0083,2.0084,2.0135,2.013,2.0296,2.0318,2.0181,2.0183,2.0184,0,1.9504,1.9553,1.9601,1.9635,1.966,1.9713,1.9748,1.9761,1.9797,1.985,1.9889,1.9949,1.9997,2.0094,2.0121,2.0178,2.0176,2.023,2.0184,2.0181,2.0178,2.0175,2.0181,2.0238,2.024,2.0241,2.0242,0,1.962,1.9627,1.9677,1.973,1.9772,1.9815,1.9856,1.9884,1.9903,1.9944,2.0006,2.0043,2.0118,2.0178,2.0235,2.0261,2.0256,2.0256,2.0271,2.027,2.0263,2.0269,2.0108,2.0252,2.0251,2.0251,2.025,2.025,1.9702,1.9746,1.9788,1.9844,1.9877,1.9916,1.996,1.9984,2.0035,2.0097,2.0101,2.0168,2.0212,2.0289,2.0318,2.0371,2.0356,2.0377,2.0383,2.0388,2.0393,2.0254,2.0382,2.0381,2.0381,2.0381,2.0381,0,1.9819,1.9846,1.9898,1.9956,2.0001,1.9991,2.0037,2.0076,2.0134,2.0175,2.0223,2.0295,2.0354,2.0387,2.0446,2.0482,2.0482,2.0498,2.0495,2.0502,2.0403,2.0384,2.0497,2.0497,2.0497,2.0497,2.0497,2.0497,1.9886,1.996,1.9973,2.0064,2.0091,2.0156,2.0183,2.0221,2.0253,2.0334,2.0382,2.0403,2.0442,2.0504,2.0558,2.0566,2.0589,2.0607,2.0614,2.052,2.0509,2.0497,2.048,2.0611,2.0611,2.0708,2.0709,2.071]},{"header":{"parameterUnit":"m.s-1","parameterCategory":1,"la1":30.2991,"la2":30.254,"lo1":-89.0895,"lo2":-89.0444,"dy":0.0017,"dx":0.0017,"nx":28,"ny":28,"refTime":"2026-02-02T09:00:00:Z","depth":0,"parameterNumber":3,"parameterNumberName":"V-component_of_WINDS"},"data":[0,0,0,0,0,0,0,0,0,0,0,0,0,0,0,0,0,0,0,0,0,0,0,0,0,0,0,0,0,0,0,0,0,0,0,0,0,0,0,0,0,0,0,0,0,0,0,0,0,0,0,0,0,0,0,0,0,0,5.7596,5.7597,0,5.7739,5.774,5.7742,5.7744,5.7742,5.774,5.7738,5.7878,5.7884,5.7889,0,0,0,0,0,0,0,0,0,0,0,0,0,5.7319,5.7324,5.7596,5.7597,5.7599,5.7738,5.774,5.7742,5.7744,5.7742,5.774,5.7738,5.7877,5.7883,5.789,0,0,0,0,0,0,0,0,0,0,0,0,0,5.7448,5.7326,5.7595,5.7617,5.762,5.7738,5.774,5.7743,5.7744,5.7742,5.7739,5.7737,5.7875,5.7882,5.789,5.7994,0,0,5.7915,5.7919,0,0,0,0,0,0,0,0,5.7441,5.7458,5.7612,5.7616,5.762,5.7721,5.7694,5.7827,5.7745,5.7697,5.7738,5.7735,5.7828,5.7839,5.7872,5.8001,5.8007,5.7916,5.7921,5.7924,5.7927,0,0,0,0,0,0,0,5.7432,5.7452,5.7652,5.7614,5.7619,5.7618,5.7633,5.7719,5.7775,5.7701,5.7702,5.7719,5.7829,5.7864,5.7875,5.8009,5.7916,5.7923,5.7928,5.7931,5.823,5.8233,0,0,0,0,0,0,5.7419,5.7445,5.7647,5.7656,5.7522,5.7625,5.7642,5.7691,5.7775,5.7785,5.7721,5.7718,5.7852,5.7866,5.788,5.8008,5.7924,5.7932,5.7936,5.8227,5.8231,5.8235,0,0,0,0,0,0,5.7413,5.7437,5.7642,5.7551,5.7577,5.7633,5.7687,5.7695,5.773,5.779,5.7799,5.7747,5.785,5.7869,5.7967,5.8013,5.7935,5.7943,5.8224,5.8229,5.8233,5.8265,0,0,0,0,0,0,5.7405,5.7435,5.7476,5.7552,5.7582,5.7727,5.769,5.77,5.7745,5.7743,5.7816,5.7826,5.7849,5.7954,5.7975,5.8023,5.7949,5.822,5.8226,5.8231,5.826,5.827,5.8278,0,0,0,0,0,5.7396,5.7478,5.7478,5.7503,5.7635,5.773,5.7747,5.7774,5.7749,5.779,5.7828,5.7824,5.8005,5.7964,5.7987,5.8038,5.8217,5.8224,5.8231,5.8255,5.8268,5.8278,0,0,0,0,0,0,5.7404,5.7488,5.749,5.7599,5.7658,5.773,5.7783,5.7786,5.7851,5.7846,5.7875,5.7892,5.799,5.8023,5.7977,5.8144,5.8107,5.8119,5.8118,5.8131,5.814,5.813,5.7956,0,0,0,0,0,5.7419,5.7492,5.756,5.765,5.768,5.7726,5.7769,5.7785,5.7846,5.787,5.7916,5.7973,5.8043,5.8088,5.8156,5.8264,5.828,5.8311,5.832,5.8327,5.8337,5.8398,5.8413,5.8257,5.8257,5.8257,0,0,5.745,5.7505,5.7548,5.7653,5.7701,5.7774,5.7747,5.7825,5.7879,5.7881,5.7977,5.8013,5.8079,5.8183,5.823,5.8214,5.8384,5.8336,5.8342,5.8348,5.8407,5.8421,5.8434,5.8262,5.8261,5.8261,0,0,5.7544,5.7593,5.7674,5.7723,5.7796,5.7827,5.7846,5.7919,5.7943,5.804,5.8044,5.8107,5.8227,5.8275,5.8314,5.8428,5.8426,5.8449,5.8498,5.8557,5.8569,5.858,5.8622,5.8636,5.8458,5.8459,5.8459,0,5.7573,5.7685,5.7715,5.7794,5.784,5.7848,5.793,5.7975,5.8065,5.8096,5.8076,5.8228,5.8273,5.8389,5.8417,5.8448,5.8471,5.8441,5.8565,5.8577,5.8587,5.8627,5.8642,5.8461,5.8461,5.846,5.846,0,5.7717,5.7795,5.7852,5.7942,5.7994,5.8074,5.8114,5.8163,5.8175,5.8207,5.8306,5.8361,5.844,5.8468,5.8479,5.8586,5.8574,5.8559,5.8524,5.8604,5.8642,5.8657,5.8464,5.8463,5.8463,5.8462,0,0,5.782,5.7928,5.7948,5.799,5.8071,5.8131,5.8211,5.8291,5.8333,5.8395,5.8462,5.8564,5.8552,5.8597,5.8614,5.8665,5.8753,5.8645,5.8647,5.8664,5.8875,5.8886,5.8903,5.8752,5.8755,5.8758,5.887,0,5.7924,5.807,5.8099,5.8224,5.8297,5.8305,5.8375,5.8432,5.8464,5.8529,5.8563,5.8636,5.8614,5.8642,5.8693,5.8732,5.8796,5.8724,5.8815,5.8818,5.8799,5.8923,5.8934,5.9037,5.8884,5.8887,5.8889,0,5.8065,5.8133,5.8267,5.834,5.8372,5.8434,5.8511,5.8573,5.8637,5.8657,5.8709,5.872,5.8802,5.8762,5.8876,5.8826,5.8865,5.8889,5.8894,5.8904,5.8859,5.8937,5.9071,5.9087,5.8912,5.891,5.8909,0,5.8128,5.8253,5.835,5.8385,5.8473,5.8517,5.8555,5.8617,5.8664,5.8729,5.876,5.8834,5.8874,5.893,5.896,5.8928,5.9072,5.9034,5.909,5.909,5.912,5.9118,5.9263,5.9144,5.9144,5.9143,5.9143,0,5.8241,5.8322,5.838,5.8439,5.853,5.8563,5.8652,5.8689,5.8744,5.881,5.8821,5.8882,5.8918,5.8984,5.9007,5.9098,5.9116,5.9133,5.9139,5.9133,5.9131,5.916,5.9154,5.9147,5.9147,5.9146,5.9145,0,5.8327,5.8369,5.8475,5.855,5.8571,5.8635,5.8699,5.8756,5.8789,5.8872,5.8894,5.8945,5.9023,5.9059,5.9154,5.917,5.9274,5.9274,5.9254,5.9256,5.931,5.9305,5.9479,5.9504,5.9367,5.9368,5.9369,0,5.8397,5.8461,5.8544,5.859,5.863,5.8704,5.8753,5.8787,5.8837,5.8916,5.8963,5.9043,5.9108,5.9232,5.9277,5.935,5.9352,5.9409,5.9363,5.9356,5.9355,5.9351,5.9358,5.9417,5.9418,5.9419,5.942,0,5.8517,5.8535,5.8606,5.8685,5.8744,5.8807,5.8868,5.8905,5.8948,5.9004,5.9086,5.9137,5.9236,5.9314,5.9391,5.9428,5.9432,5.9434,5.9451,5.9446,5.9432,5.9442,5.9277,5.943,5.9429,5.9428,5.9428,5.9427,5.8598,5.8656,5.8724,5.8803,5.8854,5.8911,5.897,5.9011,5.9081,5.9167,5.9182,5.9269,5.9332,5.9436,5.9476,5.9543,5.953,5.9554,5.956,5.9566,5.957,5.9421,5.9557,5.9557,5.9557,5.9556,5.9556,0,5.872,5.8765,5.8837,5.8925,5.8987,5.8987,5.9056,5.9107,5.9185,5.9244,5.9309,5.9404,5.948,5.9531,5.9609,5.9653,5.9656,5.9672,5.9669,5.9678,5.9577,5.9555,5.9668,5.9668,5.9668,5.9668,5.9668,5.9668,5.8791,5.8888,5.8915,5.9037,5.9081,5.9169,5.9208,5.9261,5.931,5.9415,5.948,5.9514,5.957,5.9652,5.9722,5.9735,5.9763,5.9779,5.9792,5.9697,5.9685,5.9674,5.9654,5.9785,5.9785,5.9887,5.9888,5.9889]}]]